Flag for Germany Weather past 2 weeks in Laatzen, Lower Saxony, Germany

Now
55 °F

Low clouds.


Feels Like: 53 °F
Forecast: 50 / 57 °F
Wind: 6 mph from West

Location: Hannover

Current Time: Sep 5, 2015 at 8:22:21 AM

Latest Report: Sep 5, 2015 at 8:00 AM


Visibility: 11 mi

Pressure: 29.84 "Hg

Humidity: 92%

Dew point: 52 °F

Location of LaatzenLocation

Historic Weather in Laatzen — Graph

°F

Laatzen temperature yesterday

Maximum temperature yesterday: 64 °F (at 2:00 PM)
Minimum temperature yesterday: 50 °F (at 1:00 AM)
Average temperature yesterday: 58 °F

Past Weeks' High & Low Weather Summary

 TemperatureHumidityPressure
High89 °F (Aug 31, 6:00 PM)100% (Aug 29, 4:00 AM)30.29 "Hg (Aug 29, 4:00 AM)
Low49 °F (Aug 29, 7:00 AM)30% (Aug 22, 1:00 PM)29.59 "Hg (Aug 24, 7:00 PM)
Average65 °F72%29.96 "Hg
* Reported Aug 21 7:00 AM — Sep 5 7:00 AM, Laatzen, Weather by CustomWeather, © 2015

Note: Actual official high and low records may vary slightly from our data, if they occured in-between our weather recording intervals... More about our weather records

Advertising

Laatzen weather history for previous 24 hours

 ConditionsComfort  
Time TempWeatherWind HumidityBarometerVisibility
7:00 AM
Sat, Sep 5
54 °FScattered clouds.6 mph92%29.83 "Hg11 mi
4:00 AM55 °FPassing clouds.5 mph94%29.82 "Hg12 mi
3:00 AM55 °FLow clouds.7 mph94%29.81 "Hg12 mi
2:00 AM55 °FSprinkles. Low clouds.8 mph91%29.80 "Hg7 mi
1:00 AM55 °FLow clouds.7 mph87%29.81 "Hg6 mi
11:00 PM
Fri, Sep 4
58 °FSprinkles. Overcast.7 mph70%29.83 "Hg19 mi
10:00 PM57 °FPassing clouds.6 mph69%29.85 "Hg19 mi
9:00 PM59 °FPassing clouds.6 mph67%29.85 "Hg19 mi
8:00 PM59 °FPartly sunny.7 mph66%29.85 "Hg19 mi
7:00 PM60 °FPartly sunny.8 mph63%29.86 "Hg19 mi
6:00 PM61 °FOvercast.7 mph60%29.86 "Hg19 mi
5:00 PM62 °FOvercast.7 mph57%29.87 "Hg19 mi
4:00 PM62 °FOvercast.6 mph54%29.89 "Hg19 mi
3:00 PM63 °FPartly sunny.6 mph53%29.90 "Hg16 mi
2:00 PM64 °FScattered clouds.8 mph55%29.90 "Hg16 mi
1:00 PM62 °FScattered clouds.8 mph57%29.91 "Hg16 mi
12:00 PM61 °FScattered clouds.7 mph59%29.92 "Hg16 mi
11:00 AM59 °FPassing clouds.6 mph65%29.93 "Hg16 mi
10:00 AM57 °FPassing clouds.6 mph72%29.93 "Hg14 mi
9:00 AM55 °FPartly sunny.3 mph79%29.93 "Hg9 mi
8:00 AM54 °FOvercast.3 mph82%29.92 "Hg9 mi
Weather by CustomWeather, © 2015

See weather overviewHow to use our weather pages